Regional Weather Roundup
Issued by NWS Sterling, VA

Home | Current Version | Previous Version | Graphics & Text | Print | Product List | Glossary On
Versions: 1 2 3 4 5 6 7 8 9 10 11 12 13 14 15 16 17 18 19 20 21 22 23 24 25 26 27
000
ASUS41 KLWX 190311
RWRLWX

REGIONAL WEATHER ROUNDUP
NATIONAL WEATHER SERVICE BALTIMORE MD/WASHINGTON DC
1100 PM EDT FRI AUG 18 2017

Note: "FAIR" indicates few or no clouds below 12,000 feet
with no significant weather and/or obstructions to visibility.
 TC=TEMPERATURE CELSIUS

 * =Non NWS site. Station does not report precipitation (e.g. rain,
    snow, etc.), thunder, or fog.

DCZ001-MDZ009-015-VAZ040>042-051-053>054-190400-
WASHINGTON METRO

CITY           SKY/WX    TMP DP  RH WIND       PRES   REMARKS
WASHINGTON NAT MOCLDY    78  76  93 S5        29.87S
DULLES         CLOUDY    76  76 100 SE5       29.87S
ANDREWS AFB    FAIR      74  73  95 S7        29.86S
FT BELVOIR     FAIR      76  75  96 CALM      29.87R
QUANTICO       FAIR      80  78  94 S10       29.87S
COLLEGE PARK*  FAIR      75  74  96 CALM      29.86S
LEESBURG*      CLOUDY    77  77 100 CALM      29.88S
MANASSAS*      CLOUDY    78  75  90 CALM      29.87S
GAITHERSBURG*  MOCLDY    75  74  96 SE5       29.89S

$$

MDZ006>007-011-014-190400-
BALTIMORE METRO

CITY           SKY/WX    TMP DP  RH WIND       PRES   REMARKS
BWI AIRPORT    CLOUDY    75  75 100 S3        29.86R
MD SCIENCE CTR   N/A     78  75  90 MISG      29.86R
MARTIN STATE   MOCLDY    77  77 100 SW3       29.87S
ANNAPOLIS      FAIR      78  78 100 CALM      29.86R
FORT MEADE*    FAIR      72  72 100 CALM      29.89S

$$

MDZ012-015-019>023-190400-
MARYLAND EASTERN SHORE

CITY           SKY/WX    TMP DP  RH WIND       PRES   REMARKS
OCEAN CITY     LGT RAIN  73  73 100 CALM      29.92F
SALISBURY      LGT RAIN  73  73 100 SE6       29.89F
BAY BRIDGE AP* FAIR      75  75 100 S6        29.86S
CAMBRIDGE*     CLOUDY    73  72  94 SE6       29.88S
EASTON*        FAIR      76  74  92 SW6       29.91

$$

MDZ017>025-190400-
SOUTHERN MARYLAND

CITY           SKY/WX    TMP DP  RH WIND       PRES   REMARKS
PATUXENT RIVER CLOUDY    75  75 100 CALM      29.87R
ST INIGOES     TSTM      76  74  93 SE6       29.87R
LEONARDTOWN*   CLOUDY    73  72  94 CALM      29.86R

$$

MDZ003>005-190400-
NORTH CENTRAL MARYLAND

CITY           SKY/WX    TMP DP  RH WIND       PRES   REMARKS
FREDERICK*     FAIR      77  77 100 CALM      29.89S
HAGERSTOWN APT FAIR      79  74  84 S6        29.88R
WESTMINSTER*   FAIR      75  75 100 CALM      29.88S

$$

MDZ501>502-190400-
WESTERN MARYLAND

CITY           SKY/WX    TMP DP  RH WIND       PRES   REMARKS
OAKLAND*       FAIR      64  59  82 W7        30.00R
CUMBERLAND*    NOT AVBL

$$

VAZ025>031-190400-
SHENANDOAH VALLEY

CITY           SKY/WX    TMP DP  RH WIND       PRES   REMARKS
WINCHESTER*    CLOUDY    72  70  94 S5        29.90R
FRONT ROYAL*   CLOUDY    75  72  88 CALM      29.89R
LURAY*         CLOUDY    73  73 100 CALM      29.91S
NEW MARKET*    CLOUDY    74  73  95 NE6       29.91R
STAUNTON*      CLOUDY    76  71  82 CALM      29.95R
WAYNESBORO*    CLOUDY    77  69  76 W5        29.94S

$$

WVZ021-048>050-054>055-190400-
EASTERN WEST VIRGINIA PANHANDLE

CITY           SKY/WX    TMP DP  RH WIND       PRES   REMARKS
MARTINSBURG    FAIR      74  71  91 SE5       29.88R
PETERSBURG*    FAIR      74  72  93 CALM      29.94R

$$

VAZ036>039-050-190400-
CENTRAL FOOTHILLS

CITY           SKY/WX    TMP DP  RH WIND       PRES   REMARKS
CHARLOTTESVILL CLOUDY    79  77  94 N3        29.88R
CULPEPER*      MOCLDY    77  75  95 CALM      29.88R
ORANGE*        CLOUDY    73  73 100 CALM      29.88S
GORDONSVILLE*  CLOUDY    77  76  98 CALM      29.88R
WARRENTON*     FAIR      76  71  85 CALM      29.87R

$$

VAZ055>057-190400-
NORTH AND CENTRAL PIEDMONT

CITY           SKY/WX    TMP DP  RH WIND       PRES   REMARKS
FREDERICKSBRG* FAIR      77  77 100 CALM      29.86S
STAFFORD*      FAIR      76  76 100 CALM      29.91S

$$

NCZ024-NYZ072-PAZ021-071-VAZ022-071-190400-
OTHER REGIONAL OBSERVATIONS

CITY           SKY/WX    TMP DP  RH WIND       PRES   REMARKS
NEW YORK CITY  FAIR      73  71  93 VRB7G17   29.84R
PHILADELPHIA   MOCLDY    76  73  91 W9        29.84R
PITTSBURGH     FAIR      73  64  73 W6        29.90R
ROANOKE        MOCLDY    74  67  78 W5        29.98R
RICHMOND       TSTM      74  74 100 S7        29.88F
RALEIGH        MOCLDY    85  73  67 NW7       29.92R THUNDER HX  91

$$

ANZ530>537-190400-
MARINE OBSERVATIONS

STATION/POSITION TIME  TEMP    WIND        PRES
                       AIR SEA DIR/SP/G
                 (UTC) (F)     (DEG/KT/KT) (MB)
THOMAS PT LIGHT  0300   77 80  200/ 14/ 15   N/A
BALT KEY BRIDGE  0242   76     220/  5/  6 1010.9R
COVE POINT       0242   75     190/  8/  9 1012.3R
LEWISETTA        0242   75 81  210/ 12/ 13 1012.0R
SOLOMONS ISLAND  0242   75 81  160/  5/  6   N/A
PINEY POINT      0242          210/ 12/ 14   N/A

$$





USA.gov is the U.S. government's official web portal to all federal, state and local government web resources and services.